Hourly Weather Roundup
Issued by NWS Central Illinois

Home | Current Version | Previous Version | Text Only | Print | Product List | Glossary On
Versions: 1 2 3 4 5 6 7 8 9 10 11 12 13 14 15 16 17 18 19 20 21 22 23 24 25 26 27 28 29 30 31 32 33 34 35 36 37 38 39 40 41 42 43 44 45 46 47 48 49 50
279
NZUS43 KILX 271810
HWRILX

Area Weather Roundup
National Weather Service Lincoln IL
100 PM CDT TUE JUN 27 2017

NOTE:  "FAIR" indicates few or no clouds below 12,000 feet, with
       no sigificant weather and/or obstructions to visibility.


CITY           SKY/WX    TMP DP  RH WIND       PRES   REMARKS
Bloomington    SUNNY     71  47  42 VRB6      30.15F
6HR MIN TEMP:  54; 6HR MAX TEMP:  71;

Champaign      MOSUNNY   73  43  33 CALM      30.15F
6HR MIN TEMP:  55; 6HR MAX TEMP:  74;

Danville       MOSUNNY   71  46  41 SW5       30.13S
6HR MIN TEMP:  55; 6HR MAX TEMP:  71;

Decatur        SUNNY     73  45  36 MISG      30.15F
6HR MIN TEMP:  57; 6HR MAX TEMP:  73;

Effingham      SUNNY     74  49  40 CALM      30.17S
6HR MIN TEMP:  56; 6HR MAX TEMP:  74;

Flora          MOSUNNY   76  50  40 NE3       30.15F
6HR MIN TEMP:  59; 6HR MAX TEMP:  77;

Galesburg      SUNNY     71  47  42 S3        30.14F
6HR MIN TEMP:  50; 6HR MAX TEMP:  71;

Jacksonville   MOSUNNY   74  49  40 CALM      30.13F
6HR MIN TEMP:  55; 6HR MAX TEMP:  74;

Lacon          SUNNY     72  44  36 CALM      30.12F
6HR MIN TEMP:  53; 6HR MAX TEMP:  73;

Lawrenceville  SUNNY     74  49  41 NE6       30.15F
6HR MIN TEMP:  57; 6HR MAX TEMP:  74;

Litchfield     MOSUNNY   73  51  46 CALM      30.14F
6HR MIN TEMP:  57; 6HR MAX TEMP:  73;

$$


CITY           SKY/WX    TMP DP  RH WIND       PRES   REMARKS
Lincoln        SUNNY     72  47  40 CALM      30.14F
6HR MIN TEMP:  54; 6HR MAX TEMP:  74;

Macomb         SUNNY     73  41  31 SE3       30.15F
6HR MIN TEMP:  52; 6HR MAX TEMP:  73;

Mattoon        SUNNY     73  50  44 CALM      30.15F
6HR MIN TEMP:  57; 6HR MAX TEMP:  73;

Mt Carmel AP   SUNNY     74  49  40 N3        30.15S
6HR MIN TEMP:  54; 6HR MAX TEMP:  74;

Olney-Noble AP MOSUNNY   74  51  43 CALM      30.16S
Paris AP       MOSUNNY   71  48  43 CALM      30.16S
6HR MIN TEMP:  52; 6HR MAX TEMP:  71;

Peoria         SUNNY     73  45  36 S6        30.13F
6HR MIN TEMP:  54; 6HR MAX TEMP:  74;

Pontiac        SUNNY     72  43  35 CALM      30.14F
6HR MIN TEMP:  55; 6HR MAX TEMP:  73;

Rantoul        SUNNY     72  46  38 SE3       30.15F
6HR MIN TEMP:  56; 6HR MAX TEMP:  73;

Robinson       SUNNY     72  48  42 NE5       30.16S
6HR MIN TEMP:  54; 6HR MAX TEMP:  72;

Springfield    SUNNY     76  48  37 VRB6      30.14F
6HR MIN TEMP:  57; 6HR MAX TEMP:  77;

Taylorville    SUNNY     73  46  38 S6        30.15S
6HR MIN TEMP:  56; 6HR MAX TEMP:  73;

$$

...REGIONAL REPORTS...


CITY           SKY/WX    TMP DP  RH WIND       PRES   REMARKS
Chicago O`Hare MOSUNNY   73  43  33 NW10      30.10F
Kankakee       MOSUNNY   71  46  40 W3        30.14F
Moline         SUNNY     73  43  33 MISG      30.11F
Mount Sterling SUNNY     72  51  48 E6        30.13F
Mount Vernon   MOSUNNY   77  56  48 VRB5      30.14F
Pittsfield     SUNNY     75  52  44 SE5       30.14F
Quincy         SUNNY     74  50  42 VRB5      30.12F
Rockford       MOSUNNY   76  47  35 W8        30.12F
$$


CITY           SKY/WX    TMP DP  RH WIND       PRES   REMARKS
Burlington     SUNNY     73  43  33 VRB3      30.12F
Cedar Rapids   SUNNY     72  46  39 S8        30.10F
Des Moines     MOSUNNY   74  46  36 S10       30.06F
Kirksville     SUNNY     76  54  46 VRB7      30.10F
Ottumwa        SUNNY     74  45  35 SE8       30.09F
St Louis       MOSUNNY   77  51  40 E6        30.13F
$$


CITY           SKY/WX    TMP DP  RH WIND       PRES   REMARKS
Terre Haute    SUNNY     72  47  40 CALM      30.15F
Evansville     MOSUNNY   76  51  41 VRB5      30.15F
Indianapolis   MOSUNNY   70  47  43 VRB6      30.14F
Lafayette      MOSUNNY   70  48  45 W5        30.14F
Madison        PTSUNNY   71  45  39 SW9       30.09F
Milwaukee      PTSUNNY   73  47  39 W12       30.08F
$$






USA.gov is the U.S. government's official web portal to all federal, state and local government web resources and services.